EW0758 Weather Reports


time (UTC)temp
C
wind
direction
speed
KPH
gust
KPH
rain 1hr
cm
rain 24hr
cm
rain mn
cm
humidity
%
barometer
mb
20260504150154 29 32 0.0 12.9 0.00 0.00 0.00 70 1010.8
20260504141034 29 36 0.0 12.9 0.00 0.00 0.00 68 1010.4
20260504140517 29 15 0.0 8.0 0.00 0.00 0.00 68 1010.3
20260504130821 30 38 0.0 12.9 0.00 0.00 0.00 65 1009.8
20260504130315 30 61 6.4 12.9 0.00 0.00 0.00 65 1009.7
20260504130247 30 30 0.0 8.0 0.00 0.00 0.00 65 1009.8
20260504120126 31 66 9.7 27.4 0.00 0.00 0.00 66 1009.6
20260504110446 31 346 3.2 27.4 0.00 0.00 0.00 64 1009.1
20260504100249 32 58 0.0 20.9 0.00 0.00 0.00 62 1008.1
20260504081939 34 346 8.0 27.4 0.00 0.00 0.00 56 1007.9
20260504081424 34 26 8.0 27.4 0.00 0.00 0.00 57 1007.7
20260504080922 35 355 0.0 32.2 0.00 0.00 0.00 54 1007.7
20260504080748 35 73 11.3 32.2 0.00 0.00 0.00 55 1007.6
20260504070245 34 8 0.0 27.4 0.00 0.00 0.00 57 1008.3
20260504060156 33 15 3.2 12.9 0.00 0.00 0.00 64 1009.1
20260504060119 35 60 3.2 12.9 0.00 0.00 0.00 60 1009.1
20260504050410 32 7 12.9 20.9 0.00 0.00 0.00 70 1009.7
20260504045909 33 1 3.2 20.9 0.00 0.00 0.00 70 1009.8
20260504045404 33 40 1.6 12.9 0.00 0.00 0.00 69 1009.8
20260504044849 32 36 0.0 16.1 0.00 0.00 0.00 68 1010.1
20260504044340 33 20 0.0 20.9 0.00 0.00 0.00 68 1010.3
20260504043825 32 168 12.9 24.1 0.00 0.00 0.00 70 1010.2
20260504043320 32 201 14.5 24.1 0.00 0.00 0.00 69 1010.5
20260504042815 33 36 4.8 24.1 0.00 0.00 0.00 69 1010.5
20260504042740 32 221 8.0 24.1 0.00 0.00 0.00 70 1010.5
20260504042154 32 221 17.7 24.1 0.00 0.00 0.00 71 1010.7
20260504041256 31 231 8.0 40.2 0.00 0.00 0.00 71 1010.6
20260504040739 31 216 12.9 40.2 0.00 0.00 0.00 75 1010.7
20260504040227 32 220 9.7 32.2 0.00 0.00 0.00 74 1010.6
20260504035718 32 26 6.4 27.4 0.00 0.00 0.00 71 1010.9
20260504035216 32 12 12.9 27.4 0.00 0.00 0.00 71 1010.9
20260504034706 31 21 0.0 24.1 0.00 0.00 0.00 71 1011.1
20260504034156 32 24 9.7 24.1 0.00 0.00 0.00 72 1011.0
20260504033647 32 335 11.3 24.1 0.00 0.00 0.00 72 1011.1
20260504033145 32 15 3.2 20.9 0.00 0.00 0.00 66 1011.1
20260504033007 32 72 9.7 20.9 0.00 0.00 0.00 66 1011.3
20260504032132 33 39 1.6 12.9 0.00 0.00 0.00 66 1011.4
20260504031615 32 33 3.2 20.9 0.00 0.00 0.00 65 1011.1
20260504031105 32 42 0.0 24.1 0.00 0.00 0.00 66 1011.2
20260504030555 31 33 4.8 24.1 0.00 0.00 0.00 72 1011.4
20260504030058 31 5 9.7 24.1 0.00 0.00 0.00 71 1011.3
20260504025538 31 338 8.0 24.1 0.00 0.00 0.00 72 1011.3
20260504025032 32 322 9.7 24.1 0.00 0.00 0.00 71 1011.4
20260504024519 32 358 8.0 24.1 0.00 0.00 0.00 71 1011.4
20260504024015 32 29 0.0 16.1 0.00 0.00 0.00 68 1011.4
20260504023508 32 22 0.0 16.1 0.00 0.00 0.00 67 1011.5
20260504022959 32 75 8.0 32.2 0.00 0.00 0.00 68 1011.7
20260504022447 31 23 0.0 32.2 0.00 0.00 0.00 68 1011.8
20260504021935 32 18 0.0 27.4 0.00 0.00 0.00 69 1011.6
20260504021435 32 340 4.8 16.1 0.00 0.00 0.00 68 1012.1
20260504020933 31 34 4.8 16.1 0.00 0.00 0.00 69 1011.8
20260504020420 32 59 3.2 16.1 0.00 0.00 0.00 69 1011.9
20260504015918 32 31 0.0 12.9 0.00 0.00 0.00 69 1011.8
20260504015407 32 345 1.6 8.0 0.00 0.00 0.00 69 1011.9
20260504014901 31 356 3.2 12.9 0.00 0.00 0.00 69 1011.9
20260504014352 31 27 0.0 12.9 0.00 0.00 0.00 69 1012.1
20260504013845 31 233 9.7 24.1 0.00 0.00 0.00 70 1012.1
20260504013339 31 109 0.0 24.1 0.00 0.00 0.00 70 1012.2
20260504012836 31 54 1.6 16.1 0.00 0.00 0.00 68 1012.0
20260504012326 31 47 0.0 16.1 0.00 0.00 0.00 69 1012.1
20260504011825 31 132 3.2 20.9 0.00 0.00 0.00 69 1012.1
20260504011322 31 24 4.8 24.1 0.00 0.00 0.00 70 1012.1
20260504010814 31 32 1.6 24.1 0.00 0.00 0.00 70 1012.0
20260504010310 31 232 6.4 20.9 0.00 0.00 0.00 70 1012.1
20260504005757 32 197 4.8 20.9 0.00 0.00 0.00 69 1012.1
20260504005646 32 20 0.0 20.9 0.00 0.00 0.00 68 1012.0
20260504004743 31 354 3.2 12.9 0.00 0.00 0.00 69 1012.0
20260504004233 31 144 6.4 16.1 0.00 0.00 0.00 69 1012.0
20260504003716 32 213 8.0 12.9 0.00 0.00 0.00 69 1011.9
20260504003627 31 88 3.2 16.1 0.00 0.00 0.00 70 1011.9
20260504002633 30 216 9.7 20.9 0.00 0.00 0.00 72 1011.9
20260504002124 31 40 0.0 20.9 0.00 0.00 0.00 70 1011.8
20260504001619 31 169 12.9 16.1 0.00 0.00 0.00 70 1011.7
20260504001111 30 48 0.0 12.9 0.00 0.00 0.00 70 1011.5
20260504000605 30 68 8.0 20.9 0.00 0.00 0.00 70 1011.6
20260504000058 30 50 6.4 20.9 0.00 0.00 0.00 71 1011.6
20260503235535 30 60 0.0 16.1 0.00 0.00 0.00 71 1011.8
20260503235027 30 39 8.0 16.1 0.00 0.00 0.00 71 1011.6
20260503234525 30 64 0.0 12.9 0.00 0.00 0.00 70 1011.6
20260503234010 30 31 0.0 12.9 0.00 0.00 0.00 70 1011.4
20260503233506 30 53 0.0 12.9 0.00 0.00 0.00 70 1011.1
20260503232954 30 80 3.2 16.1 0.00 0.00 0.00 70 1011.2
20260503232445 30 43 0.0 16.1 0.00 0.00 0.00 70 1011.2
20260503231939 30 39 0.0 12.9 0.00 0.00 0.00 71 1011.1
20260503231430 30 80 9.7 12.9 0.00 0.00 0.00 71 1010.8
20260503230923 30 66 4.8 8.0 0.00 0.00 0.00 71 1010.8
20260503230417 29 47 1.6 3.2 0.00 0.00 0.00 72 1010.8
20260503225911 29 167 0.0 12.9 0.00 0.00 0.00 71 1010.9
20260503225736 29 26 0.0 12.9 0.00 0.00 0.00 72 1010.9
20260503224841 28 51 1.6 8.0 0.00 0.00 0.00 72 1010.9
20260503224719 28 43 3.2 8.0 0.00 0.00 0.00 73 1010.6
20260503223826 28 30 0.0 8.0 0.00 0.00 0.00 74 1010.8
20260503223436 28 56 3.2 8.0 0.00 0.00 0.00 74 1010.6
20260503222257 28 59 0.0 3.2 0.00 0.00 0.00 74 1010.5
20260503222103 28 49 0.0 3.2 0.00 0.00 0.00 74 1010.5
20260503221226 28 44 0.0 3.2 0.00 0.00 0.00 75 1010.4
20260503220701 27 31 0.0 3.2 0.00 0.00 0.00 76 1010.5
20260503220154 27 45 0.0 3.2 0.00 0.00 0.00 76 1010.3
20260503215645 27 46 0.0 3.2 0.00 0.00 0.00 76 1010.5
20260503215138 27 44 0.0 3.2 0.00 0.00 0.00 76 1010.3
20260503214634 27 46 0.0 12.9 0.00 0.00 0.00 76 1010.4
20260503214116 27 68 0.0 8.0 0.00 0.00 0.00 76 1010.2
20260503213608 27 47 0.0 0.0 0.00 0.00 0.00 76 1010.5
20260503213040 27 30 0.0 0.0 0.00 0.00 0.00 76 1010.3
20260503212530 27 42 0.0 0.0 0.00 0.00 0.00 76 1010.3
20260503212431 27 26 0.0 0.0 0.00 0.00 0.00 76 1010.5
20260503211517 27 25 0.0 0.0 0.00 0.00 0.00 76 1010.4
20260503211006 27 24 0.0 0.0 0.00 0.00 0.00 76 1010.3
20260503210821 27 29 0.0 0.0 0.00 0.00 0.00 76 1010.4
20260503205933 27 28 0.0 0.0 0.00 0.00 0.00 76 1010.4
20260503205428 27 42 0.0 0.0 0.00 0.00 0.00 75 1010.3
20260503204926 27 30 0.0 0.0 0.00 0.00 0.00 76 1010.3
20260503204411 27 22 0.0 0.0 0.00 0.00 0.00 76 1010.1
20260503203908 27 24 0.0 0.0 0.00 0.00 0.00 76 1010.2
20260503203835 27 25 0.0 3.2 0.00 0.00 0.00 75 1010.1
20260503203225 27 40 0.0 3.2 0.00 0.00 0.00 75 1010.1
20260503202342 27 24 0.0 3.2 0.00 0.00 0.00 75 1009.9
20260503201835 27 42 0.0 0.0 0.00 0.00 0.00 75 1010.2
20260503201313 27 28 0.0 3.2 0.00 0.00 0.00 75 1010.1
20260503201130 27 35 1.6 16.1 0.00 0.00 0.00 75 1010.3
20260503200236 27 34 1.6 16.1 0.00 0.00 0.00 75 1010.2
20260503195726 28 30 0.0 8.0 0.00 0.00 0.00 75 1010.0
20260503195216 28 54 6.4 8.0 0.00 0.00 0.00 75 1010.0
20260503194713 28 31 0.0 8.0 0.00 0.00 0.00 75 1009.9
20260503194219 28 66 0.0 3.2 0.00 0.00 0.00 75 1009.8
20260503193657 28 35 0.0 3.2 0.00 0.00 0.00 76 1009.9
20260503193136 27 39 0.0 0.0 0.00 0.00 0.00 76 1009.8
20260503192645 27 8 0.0 0.0 0.00 0.00 0.00 76 1009.5
20260503192119 27 27 0.0 3.2 0.00 0.00 0.00 76 1009.5
20260503191614 28 29 0.0 8.0 0.00 0.00 0.00 75 1009.4
20260503191116 28 53 1.6 12.9 0.00 0.00 0.00 75 1009.7
20260503190547 28 337 0.0 12.9 0.00 0.00 0.00 75 1009.5
20260503190035 28 48 1.6 12.9 0.00 0.00 0.00 75 1010.0
20260503185531 28 41 0.0 12.9 0.00 0.00 0.00 75 1009.6
20260503185019 28 37 0.0 0.0 0.00 0.00 0.00 75 1009.7
20260503184515 28 25 0.0 0.0 0.00 0.00 0.00 75 1009.9
20260503183955 28 25 0.0 3.2 0.00 0.00 0.00 76 1009.9
20260503183436 28 36 0.0 12.9 0.00 0.00 0.00 76 1009.6
20260503183341 28 86 3.2 16.1 0.00 0.00 0.00 76 1009.8
20260503182416 28 38 0.0 16.1 0.00 0.00 0.00 75 1009.7
20260503181915 28 40 3.2 12.9 0.00 0.00 0.00 75 1009.6
20260503181407 28 50 1.6 8.0 0.00 0.00 0.00 75 1009.5
20260503180902 28 46 0.0 8.0 0.00 0.00 0.00 75 1009.4
20260503180357 28 27 0.0 3.2 0.00 0.00 0.00 75 1009.5
20260503175826 28 31 0.0 8.0 0.00 0.00 0.00 75 1009.7
20260503175323 28 32 0.0 12.9 0.00 0.00 0.00 75 1009.8
20260503175144 28 69 1.6 12.9 0.00 0.00 0.00 75 1009.6
20260503174306 28 0 0.0 3.2 0.00 0.00 0.00 75 1010.0
20260503174140 28 29 0.0 12.9 0.00 0.00 0.00 74 1009.7
20260503173228 28 306 3.2 12.9 0.00 0.00 0.00 74 1009.8
20260503172724 28 27 0.0 12.9 0.00 0.00 0.00 74 1009.8
20260503172207 28 221 6.4 8.0 0.00 0.00 0.00 73 1009.6
20260503171704 28 30 0.0 8.0 0.00 0.00 0.00 73 1009.8
20260503171153 28 39 0.0 3.2 0.00 0.00 0.00 73 1009.8
20260503170652 28 45 0.0 3.2 0.00 0.00 0.00 74 1009.8
20260503170128 28 28 0.0 12.9 0.00 0.00 0.00 74 1009.7
20260503150730 29 28 0.0 0.0 0.00 0.00 0.00 67 1009.6